Погода в Большой Драгунской

Россия / Орловская область     52°41′38″N   35°45′03″E
темп.,
°C
ветер,
м/с
пор.,
м/с
влажн.,
%
обл.,
%
осадки,
мм/ч
давл.,
гПа
погр.,
м
17 апреля, сб
сб1700:00+7юв348371 0.0 101865
03:00+5юв22905 0.0 101817
06:00+5юв2291100 0.0 101824
09:00+8ю3480100 0.1 1019367
12:00+6ююз3393100 7.9 1018681
15:00+5юз4492100 12.4 1018689
18:00+6юз1386100 0.0 1017345
21:00+6юв2391100 0.3 1018125
18 апреля, вс
вс1800:00+5ю229337 3.2 101870
03:00+5вюв249398 3.3 1018119
06:00+4вюв239469 0.1 101885
09:00+7юв237860 0.5 1018442
12:00+9ююв346260 0.9 10181197
15:00+10ююв4457100 1.6 10181415
18:00+7ю4480100 0.4 1019633
21:00+6с2285100 0.6 1019107
19 апреля, пн
пн1900:00+6юв369194 0.2 1019331
03:00+5в3795100 2.4 1019670
06:00+6в51095100 4.0 1018467
09:00+6в61093100 7.4 1018713
12:00+7всв599299 5.3 1018787
15:00+9в5980100 6.0 1017678
18:00+8юв5989100 2.0 1017432
21:00+7в2494100 5.8 1016110
20 апреля, вт
вт2000:00+7всв5119277 2.0 1015497
03:00+7в71189100 2.0 1014611
06:00+6всв61194100 0.1 1012523
09:00+7всв61295100 0.2 1010644
12:00+6всв71395100 1.1 1007643
15:00+7всв81695100 6.8 1001794
18:00+8всв91894100 9.8 995895
21:00+8ююв9178872 12.3 993715
21 апреля, ср
ср2100:00+9юв91488100 0.1 993891
03:00+4ююз61294100 2.1 996890
06:00+2юз81496100 0.8 1000697
09:00+4юз91487100 0.9 10031196
12:00+7ююз9148298 0.1 10071306
15:00+9юз81277100 0.4 10091213
18:00+9юз7117442 0.2 1011992
21:00+6ююз513865 0.2 1014366